• In Uzbekistan
  • List of Countries
  • For 7 days
  • Water Temperature
  • Satellite Maps
  • Weather Map
  • Weather Widgets
  • user-avatar
    Login

    Hourly Weather Kanye

    Today, 25 June, Tuesday

    Time Temperature Precipitation Wind Pressure Humidity
    00:00 +7°C° 0 mm 1 mps 650 mmHg 39%
    01:00 +5°C° 0 mm 0 mps 650 mmHg 42%
    02:00 +5°C° 0 mm 0 mps 650 mmHg 46%
    03:00 +5°C° 0 mm 0 mps 650 mmHg 46%
    04:00 +6°C° 0 mm 1 mps 650 mmHg 45%
    05:00 +5°C° 0 mm 1 mps 650 mmHg 45%
    06:00 +7°C° 0 mm 1 mps 651 mmHg 39%
    07:00 +7°C° 0 mm 2 mps 651 mmHg 32%
    08:00 +9°C° 0 mm 2 mps 653 mmHg 26%
    09:00 +13°C° 0 mm 2 mps 653 mmHg 23%
    10:00 +16°C° 0 mm 3 mps 654 mmHg 20%
    11:00 +19°C° 0 mm 4 mps 655 mmHg 16%
    12:00 +20°C° 0 mm 3 mps 654 mmHg 14%
    13:00 +21°C° 0 mm 3 mps 654 mmHg 13%
    14:00 +22°C° 0 mm 3 mps 654 mmHg 12%
    15:00 +21°C° 0 mm 2 mps 654 mmHg 13%
    16:00 +20°C° 0 mm 2 mps 653 mmHg 14%
    17:00 +19°C° 0 mm 2 mps 653 mmHg 14%
    18:00 +16°C° 0 mm 1 mps 652 mmHg 23%
    19:00 +13°C° 0 mm 1 mps 651 mmHg 32%
    20:00 +10°C° 0 mm 1 mps 651 mmHg 40%
    21:00 +10°C° 0 mm 1 mps 651 mmHg 39%
    22:00 +10°C° 0 mm 1 mps 651 mmHg 37%
    23:00 +9°C° 0 mm 1 mps 652 mmHg 36%

    Tomorrow, 26 June, Wednesday

    Time Temperature Precipitation Wind Pressure Humidity
    00:00 +8°C° 0 mm 2 mps 652 mmHg 39%
    01:00 +8°C° 0 mm 2 mps 652 mmHg 42%
    02:00 +8°C° 0 mm 2 mps 652 mmHg 45%
    03:00 +8°C° 0 mm 3 mps 652 mmHg 47%
    04:00 +8°C° 0 mm 3 mps 652 mmHg 49%
    05:00 +6°C° 0 mm 4 mps 652 mmHg 51%
    06:00 +7°C° 0 mm 4 mps 652 mmHg 56%
    07:00 +7°C° 0 mm 5 mps 653 mmHg 62%
    08:00 +7°C° 0 mm 5 mps 653 mmHg 67%
    09:00 +10°C° 0 mm 6 mps 654 mmHg 64%
    10:00 +12°C° 0 mm 7 mps 655 mmHg 62%
    11:00 +16°C° 0 mm 8 mps 655 mmHg 59%
    12:00 +17°C° 0 mm 8 mps 655 mmHg 53%
    13:00 +18°C° 0 mm 7 mps 655 mmHg 46%
    14:00 +21°C° 0 mm 7 mps 654 mmHg 40%
    15:00 +21°C° 0 mm 6 mps 654 mmHg 40%
    16:00 +20°C° 0 mm 6 mps 654 mmHg 40%
    17:00 +20°C° 0 mm 5 mps 654 mmHg 40%
    18:00 +17°C° 0 mm 5 mps 653 mmHg 50%
    19:00 +15°C° 0 mm 6 mps 653 mmHg 61%
    20:00 +13°C° 0 mm 6 mps 653 mmHg 72%
    21:00 +12°C° 0 mm 5 mps 653 mmHg 77%
    22:00 +10°C° 0 mm 5 mps 653 mmHg 82%
    23:00 +9°C° 0 mm 5 mps 654 mmHg 87%

    Day after tomorrow, 27 June, Thursday

    Time Temperature Precipitation Wind Pressure Humidity
    00:00 +9°C° 0 mm 5 mps 653 mmHg 89%
    01:00 +8°C° 0 mm 5 mps 653 mmHg 90%
    02:00 +8°C° 0 mm 5 mps 653 mmHg 91%
    03:00 +8°C° 0 mm 5 mps 653 mmHg 92%
    04:00 +7°C° 0 mm 5 mps 653 mmHg 92%
    05:00 +7°C° 0 mm 5 mps 653 mmHg 93%
    06:00 +7°C° 0 mm 5 mps 653 mmHg 91%
    07:00 +7°C° 0 mm 5 mps 653 mmHg 89%
    08:00 +7°C° 0 mm 6 mps 654 mmHg 86%
    09:00 +10°C° 0 mm 6 mps 654 mmHg 76%
    10:00 +13°C° 0 mm 6 mps 655 mmHg 65%
    11:00 +15°C° 0 mm 7 mps 655 mmHg 55%
    12:00 +17°C° 0 mm 6 mps 655 mmHg 49%
    13:00 +19°C° 0 mm 6 mps 655 mmHg 43%
    14:00 +21°C° 0 mm 5 mps 654 mmHg 37%
    15:00 +21°C° 0 mm 4 mps 654 mmHg 36%
    16:00 +20°C° 0 mm 4 mps 654 mmHg 36%
    17:00 +20°C° 0 mm 3 mps 654 mmHg 35%
    18:00 +18°C° 0 mm 2 mps 653 mmHg 41%
    19:00 +16°C° 0 mm 2 mps 653 mmHg 47%
    20:00 +13°C° 0 mm 2 mps 653 mmHg 53%
    21:00 +13°C° 0 mm 2 mps 653 mmHg 57%
    22:00 +12°C° 0 mm 2 mps 653 mmHg 60%
    23:00 +10°C° 0 mm 2 mps 653 mmHg 64%

    28 June, Friday

    Time Temperature Precipitation Wind Pressure Humidity
    00:00 +10°C° 0 mm 3 mps 652 mmHg 64%
    01:00 +10°C° 0 mm 3 mps 652 mmHg 65%
    02:00 +10°C° 0 mm 4 mps 652 mmHg 65%
    03:00 +9°C° 0 mm 3 mps 652 mmHg 69%
    04:00 +9°C° 0 mm 3 mps 651 mmHg 72%
    05:00 +8°C° 0 mm 3 mps 651 mmHg 76%
    06:00 +8°C° 0 mm 3 mps 652 mmHg 74%
    07:00 +9°C° 0 mm 3 mps 652 mmHg 71%
    08:00 +9°C° 0 mm 3 mps 653 mmHg 69%
    09:00 +12°C° 0 mm 4 mps 654 mmHg 58%
    10:00 +15°C° 0 mm 4 mps 654 mmHg 47%
    11:00 +20°C° 0 mm 5 mps 655 mmHg 36%
    12:00 +21°C° 0 mm 5 mps 655 mmHg 32%
    13:00 +23°C° 0 mm 4 mps 655 mmHg 27%
    14:00 +25°C° 0 mm 4 mps 655 mmHg 22%
    15:00 +25°C° 0 mm 3 mps 654 mmHg 23%
    16:00 +24°C° 0 mm 3 mps 654 mmHg 23%
    17:00 +23°C° 0 mm 2 mps 654 mmHg 23%
    18:00 +20°C° 0 mm 2 mps 653 mmHg 29%
    19:00 +17°C° 0 mm 2 mps 653 mmHg 34%
    20:00 +14°C° 0 mm 1 mps 652 mmHg 40%
    21:00 +14°C° 0 mm 1 mps 652 mmHg 41%
    22:00 +14°C° 0 mm 2 mps 652 mmHg 42%
    23:00 +13°C° 0 mm 2 mps 653 mmHg 43%

    29 June, Saturday

    Time Temperature Precipitation Wind Pressure Humidity
    00:00 +13°C° 0 mm 2 mps 652 mmHg 43%
    01:00 +12°C° 0 mm 2 mps 652 mmHg 44%
    02:00 +12°C° 0 mm 2 mps 652 mmHg 44%
    03:00 +10°C° 0 mm 2 mps 652 mmHg 45%
    04:00 +10°C° 0 mm 2 mps 652 mmHg 46%
    05:00 +10°C° 0 mm 3 mps 652 mmHg 46%
    06:00 +10°C° 0 mm 2 mps 652 mmHg 44%
    07:00 +12°C° 0 mm 2 mps 653 mmHg 42%
    08:00 +12°C° 0 mm 2 mps 654 mmHg 39%
    09:00 +16°C° 0 mm 3 mps 655 mmHg 33%
    10:00 +19°C° 0 mm 4 mps 656 mmHg 27%
    11:00 +22°C° 0 mm 5 mps 657 mmHg 20%
    12:00 +25°C° 0 mm 4 mps 656 mmHg 19%
    13:00 +26°C° 0 mm 4 mps 656 mmHg 18%
    14:00 +27°C° 0 mm 3 mps 655 mmHg 17%
    15:00 +26°C° 0 mm 3 mps 655 mmHg 18%
    16:00 +25°C° 0 mm 2 mps 655 mmHg 18%
    17:00 +24°C° 0 mm 2 mps 654 mmHg 19%
    18:00 +21°C° 0 mm 1 mps 654 mmHg 24%
    19:00 +18°C° 0 mm 1 mps 653 mmHg 29%
    20:00 +15°C° 0 mm 1 mps 653 mmHg 33%
    21:00 +14°C° 0 mm 1 mps 653 mmHg 34%
    22:00 +14°C° 0 mm 2 mps 653 mmHg 34%
    23:00 +14°C° 0 mm 2 mps 653 mmHg 35%

    30 June, Sunday

    Time Temperature Precipitation Wind Pressure Humidity
    00:00 +13°C° 0 mm 2 mps 653 mmHg 36%
    01:00 +13°C° 0 mm 2 mps 653 mmHg 38%
    02:00 +12°C° 0 mm 1 mps 653 mmHg 39%
    03:00 +12°C° 0 mm 2 mps 653 mmHg 40%
    04:00 +12°C° 0 mm 2 mps 653 mmHg 41%
    05:00 +10°C° 0 mm 2 mps 653 mmHg 42%
    06:00 +12°C° 0 mm 2 mps 653 mmHg 40%
    07:00 +12°C° 0 mm 2 mps 654 mmHg 38%
    08:00 +11°C° 0 mm 3 mps 655 mmHg 37%
    09:00 +14°C° 0 mm 4 mps 655 mmHg 31%
    10:00 +17°C° 0 mm 5 mps 656 mmHg 26%
    11:00 +21°C° 0 mm 6 mps 657 mmHg 21%
    12:00 +23°C° 0 mm 6 mps 656 mmHg 19%
    13:00 +24°C° 0 mm 6 mps 656 mmHg 17%
    14:00 +26°C° 0 mm 6 mps 655 mmHg 15%
    15:00 +25°C° 0 mm 5 mps 655 mmHg 16%
    16:00 +23°C° 0 mm 4 mps 654 mmHg 16%
    17:00 +24°C° 0 mm 3 mps 654 mmHg 17%
    18:00 +20°C° 0 mm 3 mps 653 mmHg 20%
    19:00 +17°C° 0 mm 3 mps 652 mmHg 24%
    20:00 +14°C° 0 mm 3 mps 652 mmHg 27%
    21:00 +13°C° 0 mm 3 mps 652 mmHg 29%
    22:00 +12°C° 0 mm 4 mps 651 mmHg 30%
    23:00 +12°C° 0 mm 4 mps 651 mmHg 31%
    Show more